CW3467 Sant Marti de Canals ES current weather conditions

sailwx.info

Wind from 028 at 1 knots gusting 3

Air temperature 21.1° C
Dewpoint 15.9° C

Last reported at 2017-Jun-25 06:07 UTC.
Time now 2017-Jun-25 07:10 UTC

Location: N 42°14' E 000°59'.
View on Google Maps.

See reports from other nearby stations

  
Tides and Currents Weather Stations Pressure Air Temp Water Temp Dewpoint Dewpoint Depression Visibility Wind Speed Wind Dir Waves Ship Positions
date/time (UTC)wind fromknots sea level pressurealtimeterstation pressurevisibilityair tempwater tempwave heightnotes
2017-Jun-25 06:07 028 1 gusting 3 21.1
2017-Jun-25 06:01 083 0 gusting 3 20.6
2017-Jun-25 05:45 312 1 gusting 4 21.1
2017-Jun-25 05:37 230 1 gusting 3 21.7
2017-Jun-25 05:30 115 1 gusting 3 21.1
2017-Jun-25 05:15 145 0 gusting 3 21.1
2017-Jun-25 05:07 133 2 gusting 2 21.1
2017-Jun-25 05:00 235 21.1
2017-Jun-25 04:45 008 21.1
2017-Jun-25 04:37 013 21.7
2017-Jun-25 04:30 013 21.1
2017-Jun-25 04:15 210 0 gusting 2 21.1
2017-Jun-25 04:07 216 21.7
2017-Jun-25 04:00 210 1 gusting 3 21.1
2017-Jun-25 03:46 186 1 gusting 4 21.1
2017-Jun-25 03:37 114 3 gusting 4 21.7
2017-Jun-25 03:30 115 21.7
2017-Jun-25 03:15 101 0 gusting 1 21.7
2017-Jun-25 03:07 039 0 gusting 1 22.2
2017-Jun-25 03:00 333 0 gusting 2 21.7
2017-Jun-25 02:45 126 21.7
2017-Jun-25 02:37 134 0 gusting 1 21.7
2017-Jun-25 02:30 133 21.7
2017-Jun-25 02:15 134 22.2
2017-Jun-25 02:07 035 22.2
2017-Jun-25 02:00 110 22.2
2017-Jun-25 01:45 025 21.7
2017-Jun-25 01:37 290 22.2
2017-Jun-25 01:30 284 0 gusting 2 22.2
2017-Jun-25 01:15 039 22.8
2017-Jun-25 01:07 043 0 gusting 1 22.8
2017-Jun-25 01:00 125 22.2
2017-Jun-25 00:45 159 0 gusting 2 22.2
2017-Jun-25 00:37 154 0 gusting 1 22.8
2017-Jun-25 00:30 145 23.3
2017-Jun-25 00:15 099 1 gusting 2 22.8
2017-Jun-25 00:07 101 1 gusting 2 23.3
2017-Jun-25 00:00 125 0 gusting 0 22.8
2017-Jun-24 23:45 120 0 gusting 1 23.3
2017-Jun-24 23:37 129 1 gusting 1 23.3
2017-Jun-24 23:30 100 0 gusting 2 23.3
2017-Jun-24 23:15 134 0 gusting 1 23.9
2017-Jun-24 23:07 126 24.4
2017-Jun-24 23:00 097 0 gusting 1 23.9
2017-Jun-24 22:45 113 0 gusting 1 23.9
2017-Jun-24 22:37 113 24.4
2017-Jun-24 22:30 107 25.0
2017-Jun-24 22:15 097 0 gusting 1 25.0
2017-Jun-24 22:07 110 25.6
2017-Jun-24 22:00 120 25.0
2017-Jun-24 21:45 112 25.6
2017-Jun-24 21:37 117 26.1
2017-Jun-24 21:30 110 26.1
2017-Jun-24 21:15 162 26.7
2017-Jun-24 21:07 112 2 gusting 3 27.8
2017-Jun-24 21:00 110 1 gusting 2 27.2
2017-Jun-24 20:45 114 27.2
2017-Jun-24 20:37 129 0 gusting 2 27.8
2017-Jun-24 20:30 108 0 gusting 2 27.8
2017-Jun-24 20:15 101 1 gusting 3 27.8
2017-Jun-24 20:07 121 3 gusting 3 27.8
2017-Jun-24 20:00 107 2 gusting 5 27.8
2017-Jun-24 19:45 150 2 gusting 5 28.3
2017-Jun-24 19:37 150 3 gusting 5 28.9
2017-Jun-24 19:30 134 1 gusting 3 28.9
2017-Jun-24 19:15 153 1 gusting 5 29.4
2017-Jun-24 19:07 158 2 gusting 5 30.0
2017-Jun-24 19:00 166 1 gusting 4 30.0
2017-Jun-24 18:45 184 2 gusting 6 30.6
2017-Jun-24 18:37 221 4 gusting 6 31.1
2017-Jun-24 18:30 180 3 gusting 6 31.1
2017-Jun-24 18:15 221 2 gusting 6 31.1
2017-Jun-24 18:07 212 5 gusting 7 31.1
2017-Jun-24 18:00 248 3 gusting 8 31.1
2017-Jun-24 17:45 209 4 gusting 8 31.7
2017-Jun-24 17:37 220 5 gusting 9 31.7
2017-Jun-24 17:30 214 6 gusting 9 31.7
2017-Jun-24 17:15 246 4 gusting 8 32.2
2017-Jun-24 17:07 258 3 gusting 7 32.8
2017-Jun-24 17:00 125 1 gusting 6 32.2
2017-Jun-24 16:45 181 3 gusting 6 32.2
2017-Jun-24 16:37 217 3 gusting 7 32.8
2017-Jun-24 16:29 201 2 gusting 8 32.2
2017-Jun-24 16:15 233 3 gusting 6 31.7
2017-Jun-24 16:07 227 4 gusting 8 32.2
2017-Jun-24 15:59 238 2 gusting 6 31.7
2017-Jun-24 15:45 226 4 gusting 8 32.2
2017-Jun-24 15:37 229 4 gusting 10 32.2
2017-Jun-24 15:30 264 2 gusting 11 32.2
2017-Jun-24 15:14 233 4 gusting 9 32.2
2017-Jun-24 15:07 254 2 gusting 7 32.8
2017-Jun-24 14:59 216 4 gusting 8 31.7
2017-Jun-24 14:44 190 3 gusting 13 32.2
2017-Jun-24 14:37 158 5 gusting 10 32.2
2017-Jun-24 14:29 212 3 gusting 8 32.2
2017-Jun-24 14:14 229 6 gusting 11 31.7
2017-Jun-24 14:07 220 6 gusting 11 31.7
2017-Jun-24 13:59 122 5 gusting 9 31.7
2017-Jun-24 13:44 108 2 gusting 8 31.7
2017-Jun-24 13:37 212 5 gusting 9 32.2
2017-Jun-24 13:29 193 4 gusting 8 32.2
2017-Jun-24 13:14 201 2 gusting 8 32.2
2017-Jun-24 13:07 167 1 gusting 13 32.2
2017-Jun-24 12:59 218 5 gusting 9 31.7
2017-Jun-24 12:44 210 6 gusting 13 32.2
2017-Jun-24 12:37 150 6 gusting 11 32.8
2017-Jun-24 12:29 159 5 gusting 8 32.2
2017-Jun-24 12:14 115 4 gusting 7 31.7
2017-Jun-24 12:07 220 4 gusting 9 31.7
2017-Jun-24 11:59 239 2 gusting 9 31.7
2017-Jun-24 11:44 246 1 gusting 7 31.7
2017-Jun-24 11:37 168 3 gusting 7 31.7
2017-Jun-24 11:29 219 3 gusting 8 31.7
2017-Jun-24 11:14 226 2 gusting 5 31.7
2017-Jun-24 11:07 227 1 gusting 7 31.1
2017-Jun-24 10:59 225 6 gusting 8 30.6
2017-Jun-24 10:44 249 3 gusting 9 30.6
2017-Jun-24 10:37 288 3 gusting 6 30.6
2017-Jun-24 10:29 280 2 gusting 6 30.0
2017-Jun-24 10:14 170 1 gusting 6 29.4
2017-Jun-24 10:07 220 3 gusting 6 30.0
2017-Jun-24 09:59 235 0 gusting 4 29.4
2017-Jun-24 09:44 218 1 gusting 6 28.9
2017-Jun-24 09:37 268 1 gusting 6 28.9
2017-Jun-24 09:29 219 1 gusting 6 28.9
2017-Jun-24 09:14 233 1 gusting 3 28.3
2017-Jun-24 09:07 088 0 gusting 2 28.3
2017-Jun-24 08:59 246 28.3
2017-Jun-24 08:43 240 27.8
2017-Jun-24 08:37 296 0 gusting 1 27.8
2017-Jun-24 08:28 236 0 gusting 3 27.2
2017-Jun-24 08:14 215 26.1
2017-Jun-24 08:07 233 1 gusting 2 26.1
2017-Jun-24 07:59 208 0 gusting 3 25.6
2017-Jun-24 07:44 123 2 gusting 3 24.4
2017-Jun-24 07:37 146 2 gusting 3 25.0
2017-Jun-24 07:29 229 0 gusting 3 24.4
2017-Jun-24 07:14 222 0 gusting 2 23.9
2017-Jun-24 07:07 227 1 gusting 2 23.9
2017-Jun-24 06:59 215 0 gusting 1 23.9
2017-Jun-24 06:44 148 23.9
2017-Jun-24 06:37 248 23.9
2017-Jun-24 06:29 255 22.8
2017-Jun-24 06:14 131 22.8
2017-Jun-24 06:07 133 22.2
2017-Jun-24 05:59 143 22.2
2017-Jun-24 05:44 125 21.1
2017-Jun-24 05:37 124 0 gusting 1 20.6
2017-Jun-24 05:29 120 0 gusting 2 20.0
2017-Jun-24 05:14 135 1 gusting 2 20.0
2017-Jun-24 05:07 120 0 gusting 1 20.6
2017-Jun-24 04:59 114 20.6
2017-Jun-24 04:44 095 0 gusting 1 20.0
2017-Jun-24 04:37 086 20.6
2017-Jun-24 04:29 081 20.6
2017-Jun-24 04:14 141 20.6
2017-Jun-24 04:07 155 20.6
2017-Jun-24 03:58 155 0 gusting 2 20.6
2017-Jun-24 03:43 113 20.6
2017-Jun-24 03:29 084 21.1
2017-Jun-24 03:14 094 21.1
2017-Jun-24 03:07 110 21.1
2017-Jun-24 02:59 110 21.1
2017-Jun-24 02:44 122 0 gusting 1 21.1
2017-Jun-24 02:37 127 21.7
2017-Jun-24 02:28 122 21.7
2017-Jun-24 02:13 122 21.7
2017-Jun-24 02:07 128 22.2
2017-Jun-24 01:58 122 21.7
2017-Jun-24 01:43 115 0 gusting 1 21.7
2017-Jun-24 01:37 122 0 gusting 1 22.2
2017-Jun-24 01:28 117 22.2
2017-Jun-24 01:13 283 22.2
2017-Jun-24 01:07 285 0 gusting 0 22.2
2017-Jun-24 00:58 276 22.2
2017-Jun-24 00:43 096 22.8
2017-Jun-24 00:37 101 23.3
2017-Jun-24 00:28 096 22.8
2017-Jun-24 00:13 109 23.3
2017-Jun-24 00:07 120 0 gusting 0 23.3
2017-Jun-23 23:58 115 23.3
2017-Jun-23 23:43 103 23.9
2017-Jun-23 23:37 040 24.4
2017-Jun-23 23:28 105 23.9
2017-Jun-23 23:13 112 24.4
2017-Jun-23 23:07 132 24.4
2017-Jun-23 22:58 127 24.4
2017-Jun-23 22:43 128 25.0
2017-Jun-23 22:37 134 25.6
2017-Jun-23 22:28 347 25.6
2017-Jun-23 22:13 110 26.1
2017-Jun-23 22:07 103 1 gusting 2 26.1
2017-Jun-23 21:58 121 1 gusting 3 26.1
2017-Jun-23 21:43 055 0 gusting 1 26.7
2017-Jun-23 21:37 062 0 gusting 1 27.2
2017-Jun-23 21:28 015 1 gusting 3 27.2
2017-Jun-23 21:13 034 0 gusting 1 27.8
2017-Jun-23 21:07 110 0 gusting 1 28.3
2017-Jun-23 20:58 284 28.3
2017-Jun-23 20:43 173 3 gusting 8 28.9
2017-Jun-23 20:37 161 6 gusting 8 29.4
2017-Jun-23 20:28 156 3 gusting 7 29.4
2017-Jun-23 20:13 145 2 gusting 4 29.4
2017-Jun-23 20:07 182 1 gusting 4 30.0
2017-Jun-23 19:58 129 3 gusting 6 30.0
2017-Jun-23 19:43 098 3 gusting 6 30.0
2017-Jun-23 19:37 115 4 gusting 6 30.0
2017-Jun-23 19:28 127 2 gusting 5 30.6
2017-Jun-23 19:13 114 3 gusting 6 31.1
2017-Jun-23 19:07 134 4 gusting 9 31.7
2017-Jun-23 18:58 135 6 gusting 10 31.7
2017-Jun-23 18:43 148 1 gusting 5 32.8
2017-Jun-23 18:37 183 2 gusting 5 32.8
2017-Jun-23 18:28 246 2 gusting 5 32.8
2017-Jun-23 18:13 243 2 gusting 6 33.3
2017-Jun-23 18:07 233 2 gusting 7 33.9
2017-Jun-23 17:58 215 2 gusting 5 33.9
2017-Jun-23 17:43 222 2 gusting 6 34.4
2017-Jun-23 17:37 151 2 gusting 6 34.4
2017-Jun-23 17:28 161 3 gusting 8 33.9
2017-Jun-23 17:13 241 4 gusting 8 34.4
2017-Jun-23 17:07 168 3 gusting 6 34.4
2017-Jun-23 16:58 249 2 gusting 6 34.4
2017-Jun-23 16:43 269 4 gusting 9 34.4
2017-Jun-23 16:37 236 5 gusting 9 35.0
2017-Jun-23 16:28 236 5 gusting 11 34.4
2017-Jun-23 16:13 225 6 gusting 11 34.4
2017-Jun-23 16:07 196 5 gusting 9 35.0
2017-Jun-23 15:58 280 6 gusting 11 34.4
2017-Jun-23 15:43 162 3 gusting 12 35.0
2017-Jun-23 15:37 191 5 gusting 12 35.0
2017-Jun-23 15:28 212 1 gusting 6 35.0
2017-Jun-23 15:13 212 1 gusting 9 35.0
2017-Jun-23 15:07 238 2 gusting 9 35.0
2017-Jun-23 14:58 162 4 gusting 6 34.4
2017-Jun-23 14:43 236 3 gusting 9 34.4
2017-Jun-23 14:37 255 2 gusting 9 35.0
2017-Jun-23 14:28 229 2 gusting 8 35.0
2017-Jun-23 14:12 134 4 gusting 9 35.0
2017-Jun-23 14:07 158 2 gusting 7 35.0
2017-Jun-23 13:57 196 2 gusting 7 35.0
2017-Jun-23 13:43 201 3 gusting 7 34.4
2017-Jun-23 13:37 138 4 gusting 7 35.0
2017-Jun-23 13:27 224 2 gusting 8 34.4
2017-Jun-23 13:12 243 1 gusting 7 34.4
2017-Jun-23 13:07 253 4 gusting 6 34.4
2017-Jun-23 12:57 208 3 gusting 6 34.4
2017-Jun-23 12:42 238 1 gusting 5 33.9
2017-Jun-23 12:37 254 2 gusting 6 34.4
2017-Jun-23 12:27 212 0 gusting 6 33.9
2017-Jun-23 12:12 207 1 gusting 5 33.3
2017-Jun-23 12:07 254 1 gusting 5 33.9
2017-Jun-23 11:57 211 0 gusting 4 33.3
2017-Jun-23 11:42 285 0 gusting 3 32.8
2017-Jun-23 11:37 245 32.8
2017-Jun-23 11:27 231 0 gusting 3 32.8
2017-Jun-23 11:20 218 0 gusting 2 31.7
2017-Jun-23 11:12 287 0 gusting 2 31.7
2017-Jun-23 11:07 240 1 gusting 3 31.7
2017-Jun-23 11:00 141 0 gusting 2 30.6
2017-Jun-23 10:53 226 1 gusting 3 30.0
2017-Jun-23 10:47 235 0 gusting 2 29.4
2017-Jun-23 10:41 242 29.4
2017-Jun-23 10:37 223 1 gusting 3 31.1
2017-Jun-23 10:34 232 28.3
2017-Jun-23 10:27 239 27.2
2017-Jun-23 10:20 297 26.1
2017-Jun-23 10:13 222 0 gusting 2 26.1
2017-Jun-23 10:07 211 26.1
2017-Jun-23 10:01 228 24.4
2017-Jun-23 09:54 239 0 gusting 2 24.4
2017-Jun-23 09:46 107 23.9
2017-Jun-23 09:37 132 23.3
2017-Jun-23 09:30 125 1 gusting 3 22.8
2017-Jun-23 09:22 225 0 gusting 3 22.2
2017-Jun-23 09:13 212 1 gusting 4 21.7
2017-Jun-23 09:07 289 27.2
2017-Jun-23 09:05 214 0 gusting 2 21.7
2017-Jun-23 08:57 225 0 gusting 2 20.6
2017-Jun-23 08:50 218 20.6
2017-Jun-23 08:41 129 20.6
2017-Jun-23 08:37 235 26.7
2017-Jun-23 08:33 122 19.4
2017-Jun-23 08:25 139 0 gusting 2 19.4
2017-Jun-23 08:17 158 2 gusting 4 19.4
2017-Jun-23 08:08 142 2 gusting 3 19.4
2017-Jun-23 08:00 108 0 gusting 2 19.4
2017-Jun-23 07:52 103 1 gusting 3 19.4
2017-Jun-23 07:46 131 2 gusting 3 19.4
2017-Jun-23 07:37 222 1 gusting 3 23.9
2017-Jun-23 07:26 115 0 gusting 2 20.6
2017-Jun-23 07:18 099 0 gusting 3 20.0
2017-Jun-23 07:08 132 0 gusting 3 20.0